Location: Clarion
(42.7316°N, 93.7330°W)
Time: 08:49:12
(UTC+00:00)

SL-8 R/B - Pass Details

Date: 22 April 2026
Orbit: 646 x 656 km, 48.4° (Epoch: 16 May)

Event Time Altitude Azimuth Distance (km) Brightness Sun altitude
Rises 02:28:32 0° 248° (WSW) 2,954 7.6 -14.8°
Reaches altitude 10° 02:30:52 10° 250° (WSW) 2,044 6.7 -15.2°
Maximum altitude 02:35:35 76° 336° (NNW) 669 3.8 -15.9°
Drops below altitude 10° 02:40:18 10° 63° (ENE) 2,046 6.0 -16.6°
Enters shadow 02:40:51 - 63° (ENE) 2,255 6.2 -16.7°
